Sleetmute, AK

3:54 AM AKDT on May 24, 2017 (GMT -0800)
Sleetmute

Weather History for PASL - January, 2013

Change the Weather History Date:

Monday, January 14, 2013

  Actual Average Record
Temperature  
Mean Temperature 20 °F -  
Max Temperature 37 °F 8 °F 37 °F (1997)
Min Temperature 3 °F -1 °F -40 °F (2012)
Degree Days  
Heating Degree Days 45    
Moisture  
Dew Point 22 °F    
Average Humidity 91    
Maximum Humidity 100    
Minimum Humidity 78    
Precipitation  
Precipitation 0.02 in - - ()
Sea Level Pressure  
Sea Level Pressure 29.62 in    
Wind  
Wind Speed 1 mph (SSW)    
Max Wind Speed 5 mph    
Max Gust Speed -    
Visibility 6 miles    
Events      
Averages and records for this station are not official NWS values.
T = Trace of Precipitation, MM = Missing Value Source: NWS Daily Summary

Daily Weather History Graph

Daily Weather History Graph

Search for Another Location

Airport or City:

Trip Planner

Search our weather history database for the weather conditions in past years. The results will help you decide how hot, cold, wet, or windy it might be!

Date:

Astronomy

Jan. 14, 2013 Rise Set
Actual Time 10:31 AM AKST 4:45 PM AKST
Civil Twilight 9:33 AM AKST 5:43 PM AKST
Nautical Twilight 8:35 AM AKST 6:40 PM AKST
Astronomical Twilight 7:42 AM AKST 7:33 PM AKST
Moon 10:50 AM AKST (1/14) 10:12 PM AKST (1/14)
Length of Visible Light 8h 09m
Length of Day
6h 14m
Waxing Crescent, 12% of the Moon is Illuminated
Jan 14
Waxing Crescent
Jan 18
First Quarter
Jan 26
Full
Feb 3
Last Quarter
Feb 9
New

Hourly Weather History & Observations

Time (AKST) Temp. Windchill Dew Point Humidity Pressure Visibility Wind Dir Wind Speed Gust Speed Precip Events Conditions
12:16 AM 35.6 °F 31.7 °F 35.6 °F 100% 29.37 in 1.5 mi SW 4.6 mph - N/A   Overcast
12:36 AM 35.6 °F - 33.8 °F 93% 29.35 in 1.8 mi Calm Calm - N/A   Overcast
12:56 AM 35.6 °F - 35.6 °F 100% 29.33 in 1.8 mi Calm Calm - 0.01 in   Overcast
1:16 AM 35.6 °F - 35.6 °F 100% 29.31 in 3.0 mi Calm Calm - 0.01 in   Overcast
1:36 AM 35.6 °F - 35.6 °F 100% 29.31 in 5.0 mi Calm Calm - 0.01 in   Overcast
1:56 AM 35.6 °F - 35.6 °F 100% 29.29 in 4.0 mi Calm Calm - 0.01 in   Overcast
2:56 AM 35.6 °F - 33.8 °F 93% 29.29 in 2.0 mi Calm Calm - N/A   Overcast
3:16 AM 35.6 °F - 33.8 °F 93% 29.28 in 2.5 mi Calm Calm - N/A   Overcast
3:36 AM 35.6 °F - 33.8 °F 93% 29.28 in 3.0 mi Calm Calm - N/A   Overcast
3:56 AM 35.6 °F 32.8 °F 33.8 °F 93% 29.29 in 0.8 mi SW 3.5 mph - N/A   Overcast
4:36 AM 35.6 °F 32.8 °F 35.6 °F 100% 29.27 in 1.2 mi SSE 3.5 mph - N/A   Mostly Cloudy
4:56 AM 35.6 °F 32.8 °F 35.6 °F 100% 29.27 in 10.0 mi South 3.5 mph - N/A   Clear
5:16 AM 37.4 °F 33.8 °F 35.6 °F 93% 29.26 in 10.0 mi South 4.6 mph - N/A   Partly Cloudy
8:56 PM 10.4 °F - 6.8 °F 85% 30.06 in 10.0 mi Calm Calm - N/A   Partly Cloudy
9:16 PM 8.6 °F - 6.8 °F 92% 30.07 in 10.0 mi Calm Calm - N/A   Clear
9:56 PM 6.8 °F - 3.2 °F 85% 30.09 in 10.0 mi Calm Calm - N/A   Mostly Cloudy
10:16 PM 6.8 °F - 1.4 °F 79% 30.09 in 10.0 mi Calm Calm - N/A   Scattered Clouds
10:36 PM 6.8 °F - 1.4 °F 79% 30.10 in 10.0 mi Calm Calm - N/A   Clear
10:56 PM 5.0 °F - 1.4 °F 85% 30.09 in 9.0 mi Calm Calm - N/A   Clear
11:16 PM 5.0 °F - 1.4 °F 85% 30.10 in 10.0 mi Calm Calm - N/A   Clear
11:36 PM 3.2 °F - -2.2 °F 78% 30.11 in 5.0 mi Calm Calm - N/A   Clear
11:56 PM 3.2 °F - -0.4 °F 85% 30.11 in 9.0 mi Calm Calm - N/A   Clear